Change the Weather History Date:

Saturday, November 22, 2014

  Actual Average Record
Temperature  
Mean Temperature 30 °F 27 °F  
Max Temperature 34 °F 34 °F 60 °F (2012)
Min Temperature 25 °F 20 °F -8 °F (1929)
Degree Days  
Heating Degree Days 35 38  
Month to date heating degree days 939 717  
Since 1 July heating degree days 2138 1810  
Cooling Degree Days 0 0  
Month to date cooling degree days 0 0  
Year to date cooling degree days 148 261  
Moisture  
Dew Point 29 °F    
Average Humidity 84    
Maximum Humidity 100    
Minimum Humidity 68    
Precipitation  
Precipitation 0.00 in 0.06 in 0.93 in (1934)
Month to date precipitation 2.25 1.37  
Year to date precipitation 38.53 29.49  
Snow  
Snow 0.00 in - 4.80 in (1961)
Month to date snowfall 23.9  
Since 1 July snowfall 26.6  
Since 1 September snowfall 26.6  
Snow Depth 9.00 in    
Sea Level Pressure  
Sea Level Pressure 29.78 in    
Wind  
Wind Speed 10 mph (SW)    
Max Wind Speed 18 mph    
Max Gust Speed 27 mph    
Visibility 3 miles    
Events Fog    
T = Trace of Precipitation, MM = Missing Value Source: NWS Daily Summary

Daily Weather History Graph

Daily Weather History Graph

Search for Another Location

Airport or City:

Trip Planner

Search our weather history database for the weather conditions in past years. The results will help you decide how hot, cold, wet, or windy it might be!

Date:

Astronomy

Nov. 22, 2014 Rise Set
Actual Time 7:06 AM CST 4:20 PM CST
Civil Twilight 6:34 AM CST 4:53 PM CST
Nautical Twilight 5:57 AM CST 5:30 PM CST
Astronomical Twilight 5:22 AM CST 6:05 PM CST
Moon 7:01 AM CST (11/22) 4:53 PM CST (11/22)
Length of Visible Light 10h 19m
Length of Day
9h 14m
New Moon, 0% of the Moon is Illuminated
Nov 22
New Moon
Nov 29
First Quarter
Dec 6
Full
Dec 14
Last Quarter
Dec 21
New

Hourly Weather History & Observations

Time (CST) Temp. Windchill Dew Point Humidity Pressure Visibility Wind Dir Wind Speed Gust Speed Precip Events Conditions
12:35 AM 26.1 °F 14.0 °F 18.0 °F 71% 29.86 in 10.0 mi SW 15.0 mph 24.2 mph N/A   Mostly Cloudy
12:53 AM 26.1 °F 15.0 °F 19.0 °F 75% 29.94 in 10.0 mi SW 12.7 mph 24.2 mph N/A   Overcast
1:28 AM 26.1 °F 14.0 °F 19.9 °F 78% 29.85 in 10.0 mi SW 15.0 mph 21.9 mph N/A   Overcast
1:53 AM 26.1 °F 14.5 °F 19.9 °F 78% 29.92 in 10.0 mi SW 13.8 mph 23.0 mph N/A   Overcast
2:53 AM 27.0 °F 16.1 °F 21.9 °F 81% 29.90 in 8.0 mi SW 12.7 mph - N/A   Overcast
3:53 AM 28.0 °F 17.5 °F 24.1 °F 85% 29.87 in 6.0 mi SW 12.7 mph 23.0 mph N/A   Overcast
4:11 AM 28.0 °F 17.5 °F 25.0 °F 88% 29.80 in 6.0 mi SW 12.7 mph - N/A   Overcast
4:53 AM 28.9 °F 18.6 °F 26.1 °F 89% 29.86 in 5.0 mi SW 12.7 mph - N/A   Overcast
5:53 AM 28.9 °F 18.2 °F 27.0 °F 92% 29.86 in 3.0 mi SW 13.8 mph - N/A   Overcast
6:27 AM 28.9 °F 19.8 °F 28.0 °F 96% 29.78 in 2.5 mi SW 10.4 mph - N/A   Overcast
6:45 AM 28.9 °F 19.2 °F 28.0 °F 96% 29.78 in 2.5 mi SW 11.5 mph - N/A   Overcast
6:53 AM 30.0 °F 20.5 °F 28.0 °F 92% 29.85 in 2.0 mi SW 11.5 mph - N/A   Overcast
7:10 AM 30.0 °F 21.1 °F 28.9 °F 96% 29.78 in 1.8 mi SW 10.4 mph - N/A   Overcast
7:33 AM 30.0 °F 20.5 °F 28.9 °F 96% 29.77 in 0.8 mi SW 11.5 mph - N/A   Overcast
7:53 AM 30.0 °F 20.0 °F 28.9 °F 96% 29.83 in 0.5 mi SW 12.7 mph - N/A Fog Light Freezing Fog
8:53 AM 30.0 °F 21.1 °F 30.0 °F 100% 29.83 in 0.5 mi SW 10.4 mph 20.7 mph N/A Fog Light Freezing Fog
9:53 AM 30.9 °F 21.7 °F 30.0 °F 96% 29.81 in 1.0 mi WSW 11.5 mph - N/A   Overcast
10:53 AM 30.9 °F 21.7 °F 30.0 °F 96% 29.80 in 1.5 mi WSW 11.5 mph - N/A   Overcast
11:53 AM 32.0 °F 23.0 °F 30.0 °F 92% 29.78 in 1.8 mi SSW 11.5 mph - N/A   Overcast
12:00 PM 32.0 °F 23.0 °F 30.0 °F 92% 29.72 in 2.0 mi SW 11.5 mph - N/A   Overcast
12:41 PM 32.0 °F 24.8 °F 30.0 °F 92% 29.71 in 3.0 mi SW 8.1 mph - N/A   Overcast
12:49 PM 32.0 °F 23.6 °F 30.2 °F 93% 29.72 in 3.0 mi WSW 10.4 mph - N/A   Overcast
12:53 PM 32.0 °F 24.2 °F 30.0 °F 92% 29.78 in 3.0 mi SW 9.2 mph - N/A   Overcast
1:53 PM 33.1 °F 26.9 °F 30.0 °F 89% 29.76 in 3.0 mi SW 6.9 mph - N/A   Overcast
2:53 PM 33.1 °F 25.5 °F 30.9 °F 92% 29.76 in 3.0 mi WSW 9.2 mph - N/A   Overcast
3:53 PM 33.1 °F 26.1 °F 30.9 °F 92% 29.76 in 5.0 mi SW 8.1 mph - N/A   Overcast
4:53 PM 33.1 °F 26.9 °F 30.9 °F 92% 29.76 in 6.0 mi WSW 6.9 mph - N/A   Overcast
5:21 PM 33.1 °F 27.7 °F 32.0 °F 96% 29.70 in 5.0 mi SW 5.8 mph - N/A   Overcast
5:53 PM 33.1 °F 26.9 °F 32.0 °F 96% 29.76 in 4.0 mi SW 6.9 mph - N/A   Overcast
6:25 PM 33.1 °F 25.5 °F 32.0 °F 96% 29.70 in 2.0 mi SW 9.2 mph - N/A   Overcast
6:45 PM 33.1 °F 30.0 °F 33.1 °F 100% 29.68 in 1.8 mi South 3.5 mph - N/A   Overcast
6:53 PM 33.1 °F 28.7 °F 33.1 °F 100% 29.74 in 1.5 mi SSW 4.6 mph - N/A   Overcast
7:31 PM 33.1 °F 27.7 °F 33.1 °F 100% 29.69 in 0.8 mi SSW 5.8 mph - N/A   Overcast
7:38 PM 33.1 °F 30.0 °F 33.1 °F 100% 29.68 in 1.0 mi SSW 3.5 mph - N/A   Overcast
7:45 PM 33.1 °F 27.7 °F 33.1 °F 100% 29.68 in 0.8 mi South 5.8 mph - N/A   Overcast
7:53 PM 33.1 °F 26.9 °F 33.1 °F 100% 29.74 in 1.0 mi SSW 6.9 mph - N/A   Overcast
8:53 PM 34.0 °F 26.0 °F 33.1 °F 96% 29.75 in 1.5 mi SSW 10.4 mph - N/A   Overcast
9:53 PM 34.0 °F 26.6 °F 33.1 °F 96% 29.73 in 1.8 mi SSW 9.2 mph - N/A   Overcast
10:42 PM 34.0 °F 29.8 °F 34.0 °F 100% 29.67 in 0.8 mi South 4.6 mph - N/A   Overcast
10:53 PM 34.0 °F 31.0 °F 34.0 °F 100% 29.73 in 0.8 mi SSE 3.5 mph - N/A   Mist
11:53 PM 34.0 °F - 34.0 °F 100% 29.70 in 0.5 mi Calm Calm - N/A Fog Fog